Weather History for North Myrtle Beach, SC

Change the Weather History Date:

Sunday, March 18, 2012

  Actual Average Record
Temperature  
Mean Temperature 66 °F 55 °F  
Max Temperature 73 °F 65 °F 84 °F (1955)
Min Temperature 59 °F 45 °F 31 °F (2007)
Degree Days  
Heating Degree Days 0 10  
Month to date heating degree days 105 222  
Since 1 July heating degree days 1686 2166  
Cooling Degree Days 1 0  
Month to date cooling degree days 14 0  
Year to date cooling degree days 14 0  
Growing Degree Days 16 (Base 50)    
Moisture  
Dew Point 62 °F    
Average Humidity 87    
Maximum Humidity 100    
Minimum Humidity 73    
Precipitation  
Precipitation 0.12 in 0.12 in 0.37 in (2013)
Month to date precipitation 2.76 2.26  
Year to date precipitation 6.00 9.37  
Sea Level Pressure  
Sea Level Pressure 30.24 in    
Wind  
Wind Speed 3 mph (East)    
Max Wind Speed 9 mph    
Max Gust Speed 43 mph    
Visibility 5 miles    
Events Fog , Rain , Thunderstorm    
T = Trace of Precipitation, MM = Missing Value Source: NWS Daily Summary

Daily Weather History Graph

Daily Weather History Graph

Search for Another Location

Airport:

Trip Planner

Search our weather history database for the weather conditions in past years. The results will help you decide how hot, cold, wet, or windy it might be!

Date:

Astronomy

Mar. 18, 2012 Rise Set
Actual Time 7:20 AM EDT 7:25 PM EDT
Civil Twilight 6:55 AM EDT 7:50 PM EDT
Nautical Twilight 6:26 AM EDT 8:19 PM EDT
Astronomical Twilight 5:57 AM EDT 8:48 PM EDT
Moon 4:48 AM EDT (3/18) 3:59 PM EDT (3/18)
Length of Visible Light 12h 54m
Length of Day
12h 04m
Waning Crescent, 15% of the Moon is Illuminated
Mar 18
Waning Crescent
Mar 22
New
Mar 30
First Quarter
Apr 6
Full
Apr 13
Last Quarter

Hourly Weather History & Observations

Time (EDT) Temp. Dew Point Humidity Pressure Visibility Wind Dir Wind Speed Gust Speed Precip Events Conditions
12:01 AM 64.4 °F 60.8 °F 88% 30.24 in 10.0 mi Calm Calm - N/A Thunderstorm Mostly Cloudy
12:23 AM 64.4 °F 60.8 °F 88% 30.24 in 10.0 mi Calm Calm - N/A   Mostly Cloudy
12:38 AM 64.4 °F 60.8 °F 88% 30.23 in 10.0 mi NNE 4.6 mph - N/A Thunderstorm Scattered Clouds
12:53 AM 64.0 °F 61.0 °F 90% 30.23 in 10.0 mi NNE 5.8 mph - 0.00 in Rain Light Rain
1:01 AM 64.4 °F 60.8 °F 88% 30.23 in 10.0 mi NE 6.9 mph - 0.01 in Rain , Thunderstorm Light Rain
1:53 AM 64.9 °F 62.1 °F 90% 30.24 in 10.0 mi Variable 3.5 mph - 0.02 in Rain , Thunderstorm Light Rain
2:05 AM 64.4 °F 60.8 °F 88% 30.23 in 4.0 mi NNE 9.2 mph - 0.05 in Rain Rain
2:53 AM 64.0 °F 62.1 °F 93% 30.21 in 9.0 mi Calm Calm - 0.07 in Rain Light Rain
3:53 AM 64.0 °F 61.0 °F 90% 30.22 in 9.0 mi South 4.6 mph - 0.01 in   Scattered Clouds
4:53 AM 62.1 °F 61.0 °F 96% 30.22 in 2.5 mi NE 3.5 mph - 0.00 in   Mostly Cloudy
5:05 AM 62.6 °F 60.8 °F 94% 30.21 in 3.0 mi ENE 4.6 mph - N/A   Mostly Cloudy
5:53 AM 63.0 °F 61.0 °F 93% 30.22 in 4.0 mi NE 3.5 mph - N/A   Mostly Cloudy
6:53 AM 64.0 °F 62.1 °F 93% 30.25 in 5.0 mi WNW 3.5 mph - N/A   Overcast
7:23 AM 62.6 °F 60.8 °F 94% 30.25 in 2.0 mi Calm Calm - 0.01 in   Partly Cloudy
7:34 AM 62.6 °F 60.8 °F 94% 30.25 in 2.5 mi ESE 3.5 mph - 0.01 in   Scattered Clouds
7:45 AM 62.6 °F 60.8 °F 94% 30.26 in 2.5 mi ENE 3.5 mph - 0.01 in   Mostly Cloudy
7:53 AM 64.0 °F 62.1 °F 93% 30.26 in 2.0 mi East 4.6 mph - 0.01 in   Mostly Cloudy
7:55 AM 64.4 °F 62.6 °F 94% 30.26 in 0.2 mi ESE 4.6 mph - N/A Fog Fog
8:53 AM 63.0 °F 62.1 °F 97% 30.27 in 0.2 mi East 8.1 mph - N/A Fog Fog
9:02 AM 62.6 °F 62.6 °F 100% 30.28 in 0.8 mi East 6.9 mph - N/A Fog Fog
9:53 AM 63.0 °F 62.1 °F 97% 30.30 in 0.5 mi East 5.8 mph - N/A Fog Fog
10:00 AM 62.6 °F 62.6 °F 100% 30.29 in 1.0 mi ESE 5.8 mph - N/A   Overcast
10:41 AM 64.4 °F 62.6 °F 94% 30.30 in 2.0 mi ESE 4.6 mph - N/A   Overcast
10:53 AM 64.0 °F 62.1 °F 93% 30.31 in 2.0 mi ENE 4.6 mph - N/A   Overcast
11:09 AM 64.4 °F 62.6 °F 94% 30.31 in 3.0 mi East 4.6 mph - N/A   Overcast
11:53 AM 66.9 °F 63.0 °F 87% 30.31 in 4.0 mi SE 4.6 mph - N/A   Overcast
12:53 PM 69.1 °F 63.0 °F 81% 30.29 in 7.0 mi East 4.6 mph - N/A   Mostly Cloudy
1:53 PM 71.1 °F 63.0 °F 75% 30.27 in 10.0 mi SE 5.8 mph - N/A   Scattered Clouds
2:53 PM 70.0 °F 62.1 °F 76% 30.24 in 10.0 mi SSE 8.1 mph - N/A   Clear
3:53 PM 70.0 °F 62.1 °F 76% 30.21 in 10.0 mi SE 5.8 mph - N/A   Clear
4:53 PM 66.9 °F 62.1 °F 84% 30.22 in 10.0 mi South 8.1 mph - N/A   Clear
6:41 PM 64.4 °F 62.6 °F 94% 30.20 in 7.0 mi Calm Calm - 0.01 in Rain Light Rain
6:53 PM 66.0 °F 63.0 °F 90% 30.21 in 7.0 mi Calm Calm - 0.01 in   Overcast
7:36 PM 64.4 °F 62.6 °F 94% 30.20 in 8.0 mi Calm Calm - N/A   Scattered Clouds
7:53 PM 64.9 °F 62.1 °F 90% 30.20 in 7.0 mi Calm Calm - N/A   Partly Cloudy
8:04 PM 64.4 °F 62.6 °F 94% 30.20 in 6.0 mi Calm Calm - N/A   Partly Cloudy
8:53 PM 64.0 °F 61.0 °F 90% 30.21 in 5.0 mi Calm Calm - N/A   Mostly Cloudy
9:53 PM 63.0 °F 61.0 °F 93% 30.21 in 1.5 mi Calm Calm - N/A   Scattered Clouds
9:56 PM 62.6 °F 60.8 °F 94% 30.21 in 0.8 mi Calm Calm - N/A   Mist
10:11 PM 62.6 °F 60.8 °F 94% 30.21 in 0.2 mi Calm Calm - N/A Fog Fog
10:53 PM 61.0 °F 60.1 °F 97% 30.21 in 0.2 mi Calm Calm - N/A Fog Fog
11:53 PM 61.0 °F 59.0 °F 93% 30.22 in 0.2 mi Calm Calm - N/A Fog Fog